Theta_e
309 309 309 309 309 309 309 310 310 310 310 311 311 311 311 311 311 311 311 311 311 311 311 311 311 311 311 310 310 310 311 310 310 311 311 312 312 313 313 313 312 312 312 312 312 312 313 313 313 314 314 313 314 314 315 315 315 317 319 319 317 318 318 318 318 316 317 317 315 313 313 315 315 313 313 314 314 313 314 314 314 315 315 315 315 315 314 315
309 309 309 309 309 309 309 310 310 310 311 311 311 311 311 311 311 311 311 311 311 311 311 311 311 311 311 310 310 310 310 310 310 311 311 313 312 313 313 312 313 312 312 312 312 312 313 313 313 313 314 313 314 314 314 315 315 317 319 317 317 319 317 316 317 316 316 316 316 313 313 314 315 314 314 315 315 314 314 315 314 314 315 315 315 315 315 315
309 309 309 309 309 309 310 310 310 311 311 311 311 311 311 311 311 312 311 311 311 310 311 311 311 311 310 310 310 310 310 310 310 310 311 312 312 313 313 312 312 312 313 313 312 312 313 313 313 314 314 314 314 313 314 315 314 315 316 316 317 318 316 313 315 315 314 314 315 314 312 313 314 314 314 315 316 315 315 316 315 315 315 316 315 315 315 315
309 309 309 309 309 310 310 310 310 310 310 310 311 311 311 312 311 311 311 311 311 311 310 310 310 310 310 310 310 310 310 311 311 311 311 311 313 314 313 312 313 312 313 313 313 313 313 313 313 314 314 315 314 313 314 313 314 314 315 316 315 314 315 313 312 313 312 313 314 314 312 313 313 313 314 315 315 316 316 316 316 316 316 316 315 315 315 315
309 309 309 309 309 310 310 310 310 310 310 311 311 311 311 311 311 311 311 310 311 311 310 310 310 310 309 310 310 310 311 311 312 312 312 311 313 314 313 312 312 312 312 312 313 313 313 313 314 314 314 315 314 315 314 312 313 314 313 313 312 312 315 313 311 312 312 313 313 313 313 314 313 313 314 314 315 317 317 316 316 316 316 316 315 315 315 315
309 309 309 309 309 310 310 310 310 310 310 310 311 311 311 311 311 311 310 310 311 311 310 310 309 309 309 310 310 310 311 312 312 312 313 313 313 313 312 312 312 313 312 313 312 313 313 313 314 314 315 315 314 315 314 312 313 315 314 311 311 312 314 313 311 313 312 313 313 314 314 314 313 314 313 314 316 316 316 316 316 315 316 315 315 315 315 315
309 309 309 309 310 310 310 310 310 310 310 310 311 311 311 312 311 311 310 310 311 311 310 309 309 309 309 310 310 310 311 312 312 312 313 314 313 312 312 312 312 312 312 312 313 313 313 314 314 315 315 314 314 315 313 312 313 315 315 312 311 311 312 312 311 312 312 312 313 313 314 313 314 314 313 313 315 316 316 315 315 315 315 315 315 315 315 315
309 309 309 309 310 310 310 310 310 310 310 310 311 311 311 311 311 310 310 311 311 311 309 308 308 309 309 310 310 310 311 312 313 312 313 313 313 312 312 312 312 313 312 313 312 313 313 314 314 314 315 314 314 314 313 313 314 316 315 312 312 311 311 312 311 312 311 312 313 312 314 314 313 313 312 313 315 315 315 315 315 315 315 315 315 315 315 315
309 309 309 309 310 310 310 310 310 310 310 310 311 311 311 311 310 310 310 310 310 310 309 308 308 309 310 310 310 311 311 312 313 312 312 313 312 312 312 312 313 313 313 313 312 313 313 314 314 314 315 314 314 314 313 314 315 315 314 313 313 312 312 312 311 312 311 311 312 313 314 313 312 312 313 315 315 315 315 315 315 315 315 315 316 315 315 315
309 309 309 310 310 310 310 310 310 310 310 310 311 311 311 310 310 310 309 309 309 309 308 308 308 309 310 310 310 311 312 312 312 312 312 312 312 312 312 313 314 315 314 313 312 313 313 314 314 314 315 314 314 314 313 315 315 313 313 313 314 313 313 312 313 312 312 312 312 313 314 313 311 312 315 316 316 315 315 315 315 315 315 315 315 315 315 315
309 309 309 309 309 309 309 309 309 309 310 310 311 310 310 310 309 309 308 308 308 308 307 307 308 309 309 310 310 312 312 311 312 312 312 312 312 312 312 313 316 315 314 313 313 313 313 314 314 314 315 315 314 314 313 314 314 313 313 314 314 314 314 313 314 313 313 313 312 313 314 313 311 312 316 317 315 315 315 315 315 315 315 315 314 314 314 314
308 309 308 308 309 309 309 309 309 309 310 310 310 309 308 308 308 307 307 307 307 307 307 308 308 309 310 310 310 312 313 312 312 313 312 312 312 312 313 314 315 315 315 314 313 314 314 314 314 314 314 315 315 314 314 313 313 313 314 315 315 315 315 314 314 313 313 314 313 313 314 314 314 314 316 316 315 316 315 315 316 315 316 315 315 315 315 315
308 308 308 308 308 308 308 308 309 309 308 308 307 307 307 307 307 307 307 307 307 307 307 308 308 309 310 310 310 313 315 313 313 313 312 312 312 312 312 314 315 315 316 315 314 315 315 315 314 314 314 314 314 314 314 313 313 315 314 315 316 316 315 314 312 312 313 314 313 313 315 317 317 317 317 316 315 315 315 315 315 316 316 316 316 316 316 316
308 308 308 307 307 307 307 307 307 307 306 306 306 306 306 306 306 307 306 307 307 307 308 308 308 309 309 311 311 312 314 314 313 313 312 312 312 312 312 314 314 314 316 316 315 316 315 315 315 314 314 314 314 313 315 314 314 314 313 315 316 315 315 314 311 312 314 314 312 313 315 317 318 318 316 315 315 314 314 315 315 316 316 316 316 316 316 316
307 307 307 306 307 307 306 306 306 306 306 306 306 306 306 306 306 306 307 307 307 307 308 308 308 309 309 310 311 311 312 312 312 312 313 312 312 312 312 314 314 314 315 316 316 317 316 315 315 314 313 314 314 315 315 315 314 313 313 315 315 314 315 315 311 311 314 313 312 314 315 316 318 317 316 315 315 314 314 315 316 316 316 316 316 316 316 317
306 307 307 306 307 307 307 307 307 307 308 308 308 308 308 308 307 307 307 307 307 307 307 308 308 309 309 309 311 312 311 311 311 312 313 313 312 312 312 313 314 314 314 316 316 317 317 316 315 313 313 314 315 316 316 315 315 314 314 315 315 315 315 315 311 309 311 312 312 313 315 316 317 316 314 315 315 314 314 315 316 316 316 316 316 316 317 317
308 308 308 308 308 308 308 308 309 309 309 309 308 308 308 308 308 308 308 308 307 308 308 308 308 309 310 310 312 313 312 311 311 311 313 313 312 312 312 313 314 314 314 315 316 317 317 316 314 314 314 314 315 316 315 313 314 315 315 315 315 314 314 314 314 310 309 311 313 313 314 316 317 316 315 314 314 313 313 314 315 316 316 316 316 316 316 317
309 309 309 309 309 309 309 309 309 309 308 308 307 307 307 307 307 308 309 309 308 308 309 309 309 309 310 310 312 313 312 311 311 311 312 313 312 312 312 313 313 314 314 315 316 316 316 315 315 316 315 314 315 315 313 313 314 314 315 315 314 313 313 314 314 312 310 311 313 314 314 315 316 317 316 316 315 313 313 314 314 315 315 316 316 317 317 317
309 309 309 309 309 309 309 309 309 308 308 307 307 307 307 306 307 307 307 308 309 309 310 310 310 310 311 310 311 313 312 312 311 311 312 313 312 312 312 313 313 314 314 315 316 315 315 316 316 316 316 315 316 316 314 314 314 315 316 315 314 314 314 315 314 311 310 312 314 315 315 316 316 316 317 317 315 313 313 313 314 315 315 316 317 318 318 318
309 308 308 308 309 309 309 308 308 308 307 307 307 307 307 308 309 308 307 308 309 310 311 311 310 310 312 311 310 313 313 312 312 311 312 313 312 312 313 313 314 314 314 315 316 314 314 316 317 316 316 316 316 315 313 312 314 315 316 315 315 315 314 315 314 310 309 313 315 316 315 316 316 316 317 317 316 314 313 313 314 315 315 316 318 318 318 318
311 309 308 308 308 308 308 308 308 308 307 307 307 307 308 309 310 309 307 307 308 309 311 311 310 310 313 312 311 312 313 313 313 312 312 312 312 312 313 313 314 314 313 314 315 314 314 316 317 316 315 315 314 312 312 312 313 315 315 315 316 315 315 315 313 309 309 312 315 315 314 315 315 316 316 316 316 315 315 315 315 315 316 316 317 318 318 318
314 312 310 309 308 307 307 307 307 307 307 307 307 307 308 308 309 310 309 309 309 308 309 310 310 310 312 313 312 312 313 313 313 313 312 312 313 313 313 313 313 314 312 312 314 314 315 316 316 314 311 311 311 310 312 313 314 314 315 315 315 315 315 314 312 309 309 312 315 315 314 315 315 315 316 317 316 316 316 316 316 316 316 316 317 317 317 318
317 315 313 311 309 308 307 307 307 307 307 307 307 307 307 307 309 310 310 310 310 309 308 308 309 310 311 312 312 312 312 313 314 313 312 312 313 312 313 314 313 313 313 313 315 315 314 315 314 311 311 312 311 310 312 313 314 315 315 315 315 316 316 312 312 310 309 310 313 313 313 314 315 314 315 316 316 316 315 315 315 315 315 316 317 317 316 316
319 318 317 315 312 310 308 308 307 307 306 306 307 306 307 307 307 308 308 309 310 310 309 309 309 309 310 311 311 312 312 313 313 314 313 312 313 312 313 314 313 313 313 313 314 314 314 312 310 310 312 313 312 311 312 314 314 316 316 316 316 317 315 313 313 312 311 310 310 312 314 316 316 316 316 316 315 314 314 314 314 315 316 316 316 316 316 316
319 319 319 318 316 313 310 308 308 308 307 306 306 306 307 307 307 308 308 309 309 309 309 310 310 309 309 309 310 312 313 312 313 313 313 313 313 313 313 312 312 313 313 313 313 314 313 310 309 310 311 313 314 312 314 315 315 316 316 316 315 315 315 314 314 314 314 314 311 312 314 315 316 316 317 317 315 316 315 314 315 315 316 316 316 316 317 317
320 319 319 318 318 317 311 308 308 308 308 307 307 306 307 307 307 308 308 309 310 310 310 310 311 311 310 310 310 312 312 312 312 313 313 313 312 313 313 312 311 312 313 312 312 314 312 309 310 313 311 314 314 313 314 316 315 315 315 314 314 314 315 315 315 315 315 315 313 311 314 315 316 316 317 317 317 318 317 316 317 317 316 316 316 317 317 317
322 321 320 319 319 319 314 309 308 308 308 308 307 307 308 308 308 308 309 310 310 312 312 310 310 311 310 310 311 311 311 311 312 313 313 313 312 312 313 312 311 311 311 311 312 313 312 310 311 314 314 314 314 314 315 315 314 315 315 313 312 313 315 315 316 316 315 315 314 313 316 316 316 316 316 317 317 317 317 317 318 319 318 317 317 316 316 316
322 322 321 320 319 319 317 313 310 308 308 309 308 308 308 308 309 310 310 310 311 312 312 310 310 311 310 311 311 310 310 311 312 314 313 313 313 312 313 312 312 313 311 311 314 312 312 314 313 314 315 314 315 316 314 314 314 315 311 310 311 313 315 315 316 316 315 315 315 315 316 315 316 317 315 315 316 317 317 317 318 320 319 318 317 316 316 316
321 321 322 321 320 320 319 317 312 308 308 310 308 308 309 308 309 310 309 310 312 311 310 310 310 310 311 310 310 310 309 310 313 313 313 312 313 312 312 312 312 313 311 311 314 313 311 312 311 313 315 314 314 311 310 314 315 311 309 310 312 312 313 314 315 316 315 315 317 317 316 313 314 317 315 315 316 317 318 318 319 320 319 317 317 316 317 317
321 321 321 321 321 320 320 320 315 309 309 310 307 308 308 308 309 308 308 311 313 312 309 310 310 310 311 310 309 309 310 311 312 312 312 312 313 312 311 311 311 313 312 312 313 312 309 308 309 312 313 312 310 307 307 313 312 310 312 314 314 313 313 314 314 315 315 316 317 317 317 314 313 316 317 317 316 317 318 318 319 319 318 318 317 317 318 318
320 321 321 321 321 320 320 320 317 311 309 309 308 308 308 311 313 310 309 311 312 313 310 309 310 310 311 311 310 310 310 311 312 312 312 312 312 311 311 311 312 313 313 313 313 312 310 310 311 311 310 309 311 309 308 308 308 312 316 317 316 314 314 315 315 316 316 317 315 313 315 316 315 316 317 317 316 315 317 317 318 320 319 318 317 318 318 317
320 320 320 320 321 321 320 320 318 312 308 308 308 308 309 312 314 311 310 310 310 313 313 311 311 311 311 311 311 311 311 312 312 313 313 313 313 312 312 313 313 313 313 313 314 313 313 314 312 310 309 310 314 314 310 309 310 313 316 316 315 314 314 316 317 316 316 316 313 310 313 315 315 315 316 316 315 314 315 316 318 319 319 318 317 317 317 317
319 319 320 320 320 320 320 321 319 313 308 309 309 310 312 313 312 311 311 310 312 313 313 312 311 311 311 311 311 310 311 312 312 312 313 313 314 313 314 314 314 315 314 314 314 313 313 314 312 312 310 310 314 315 314 313 312 314 316 316 315 314 314 316 315 313 314 315 311 308 312 315 315 315 316 316 316 317 316 315 316 317 317 318 317 316 317 316
318 318 319 319 319 320 319 320 320 315 308 309 310 311 313 313 313 313 311 312 316 312 311 312 311 310 311 312 312 310 311 312 311 312 313 313 314 314 314 314 313 314 314 313 314 313 314 313 313 313 313 312 314 315 316 316 313 314 317 316 315 315 315 314 314 313 313 314 311 309 313 316 316 316 316 315 315 316 316 315 315 316 317 317 317 316 316 316
316 316 317 318 318 319 319 319 320 317 309 310 312 311 313 314 315 316 313 314 317 313 311 311 311 311 311 313 313 311 310 311 311 312 313 313 314 314 314 313 312 313 314 313 313 313 314 314 313 312 311 312 314 314 315 316 314 314 314 315 315 315 313 312 312 313 312 313 313 312 313 316 316 316 315 314 314 314 313 314 314 314 316 316 316 316 315 316
314 314 315 317 317 318 319 318 320 316 309 311 313 312 314 316 316 319 315 313 316 314 312 311 312 313 312 312 314 312 311 312 312 313 313 314 314 314 315 315 313 312 312 312 313 313 312 313 313 311 310 311 311 311 312 313 313 313 313 314 314 313 313 313 311 310 310 313 314 314 314 315 315 316 316 315 316 315 313 313 313 314 316 315 315 316 315 316
314 313 314 315 315 317 318 318 320 314 309 311 313 312 315 317 317 320 316 313 314 314 313 313 313 314 313 313 314 312 312 313 312 313 314 313 314 314 314 315 313 312 312 312 314 315 313 313 312 311 312 310 307 309 311 310 312 313 313 314 313 312 313 313 313 313 313 315 316 315 315 315 315 316 317 315 315 315 314 315 315 314 315 315 315 316 316 317
313 313 313 313 314 315 316 317 318 313 309 311 313 313 316 316 316 317 314 312 314 314 314 315 314 315 314 314 314 312 312 313 313 313 314 313 313 315 314 314 314 313 313 312 312 313 313 313 312 308 311 311 308 311 313 310 310 312 313 314 313 314 315 314 313 315 315 316 316 316 314 314 315 316 316 316 317 316 316 316 315 315 316 315 315 317 317 317
311 313 314 313 313 314 315 316 315 312 311 312 311 313 315 315 314 314 313 312 314 314 314 315 315 315 314 314 314 312 312 313 313 313 313 313 313 314 314 314 315 313 313 312 311 312 312 312 314 308 308 311 310 312 314 313 311 310 311 312 312 314 316 315 314 314 315 315 316 316 316 316 317 317 316 317 317 317 318 319 318 316 316 316 316 317 318 317
310 312 313 313 312 313 315 315 314 312 311 311 311 311 313 313 313 313 313 313 314 314 314 315 316 315 314 315 314 313 312 313 314 313 313 313 313 314 313 313 315 313 313 313 312 313 312 311 313 310 308 311 313 313 315 315 313 311 313 313 312 313 313 314 314 313 314 316 315 317 318 317 318 318 317 317 317 317 318 320 321 318 316 316 317 317 318 318
309 311 312 313 313 313 314 314 314 312 310 309 310 310 311 313 313 313 313 313 314 315 314 315 316 316 315 315 314 313 313 313 313 313 313 313 313 314 313 313 314 313 313 313 312 313 312 310 312 313 310 312 314 314 314 315 315 314 314 314 314 314 314 315 316 313 313 315 315 316 318 318 318 318 317 317 318 318 318 320 321 318 315 316 317 317 318 318
309 310 311 312 313 314 314 314 313 312 309 309 309 309 310 312 312 313 313 312 313 314 315 316 317 317 316 315 314 314 314 313 313 313 314 313 313 314 314 312 312 312 312 313 313 313 313 312 313 314 314 314 313 309 307 310 314 314 313 314 315 315 315 316 317 315 314 314 314 314 316 318 318 319 318 317 317 316 316 317 318 317 316 317 317 317 318 317
308 310 311 312 313 313 313 314 314 312 308 308 309 309 309 311 312 313 313 313 313 315 316 318 317 316 316 316 316 315 314 314 314 313 314 315 314 313 313 311 311 313 313 314 314 313 312 313 313 314 316 315 312 309 307 308 311 312 312 313 314 315 316 316 316 316 316 316 315 315 316 318 317 315 314 312 310 311 311 313 315 315 316 316 317 317 317 317
307 309 310 311 312 313 313 314 314 311 308 307 308 309 309 311 311 312 313 314 314 315 317 318 318 317 317 317 316 315 315 316 316 314 314 316 314 312 312 311 311 314 314 314 314 313 313 315 315 314 315 315 314 313 312 310 310 312 313 313 314 315 316 316 315 315 316 318 318 318 318 319 316 313 311 310 310 311 310 311 313 313 315 316 317 317 317 316
306 307 308 310 312 313 313 314 313 312 309 308 308 308 309 310 311 312 313 314 313 314 316 317 317 317 317 316 315 315 315 316 317 317 315 317 316 310 309 311 311 313 314 313 313 313 315 316 315 314 315 316 316 317 316 314 312 312 314 314 314 316 315 315 315 315 316 318 319 318 318 318 317 315 314 313 314 315 314 311 311 313 315 316 316 316 316 315
306 307 307 309 311 312 312 313 312 312 311 309 308 309 309 310 311 311 312 314 313 313 315 316 316 316 317 317 317 317 316 315 317 318 316 316 317 312 309 310 311 312 313 312 312 314 318 318 314 314 316 316 317 319 319 317 314 314 316 315 314 315 316 315 316 316 317 318 318 318 318 319 318 317 316 315 316 317 316 313 311 313 315 316 316 316 316 315
306 307 307 308 309 310 311 312 312 312 311 310 310 310 309 310 311 311 312 313 314 314 314 315 316 316 317 317 318 319 318 316 317 318 316 315 317 315 311 308 310 312 312 312 311 314 318 318 315 315 316 316 317 319 319 318 317 315 316 316 315 315 316 316 316 317 317 317 318 318 319 319 318 317 317 317 316 316 315 314 314 314 315 316 316 315 316 315
305 306 307 307 308 309 310 311 312 312 312 311 310 311 310 310 310 311 312 312 313 314 315 315 315 316 316 317 317 318 318 318 318 318 317 316 316 316 313 311 310 310 311 312 311 313 317 317 316 317 317 317 318 318 318 320 319 317 316 316 316 315 315 316 316 317 317 318 318 318 319 320 318 317 317 318 317 316 315 316 316 316 316 315 315 315 315 315
304 305 306 307 308 308 309 309 310 311 312 312 311 311 311 311 311 311 312 312 312 313 314 314 314 315 316 317 317 317 317 318 318 318 317 317 317 317 316 316 313 309 310 313 311 310 314 316 317 318 317 316 317 318 320 320 319 317 317 316 316 315 315 315 315 316 317 318 318 318 319 319 319 318 317 318 317 316 316 316 316 315 316 315 315 315 315 316
303 304 305 306 306 306 306 308 309 309 310 310 311 311 311 311 312 311 311 312 312 312 313 314 314 314 315 316 317 317 316 317 318 318 317 317 317 316 317 318 315 309 308 312 311 309 312 316 319 319 317 317 317 317 319 319 318 317 317 316 316 316 315 316 316 316 317 317 317 318 319 319 318 318 318 317 316 315 315 316 315 315 316 316 315 315 316 316
302 303 304 305 306 306 305 307 308 309 309 309 310 311 311 311 311 311 311 312 312 313 313 314 314 314 315 315 316 316 316 316 317 317 317 317 316 316 315 314 313 311 309 310 312 312 312 314 317 318 317 317 318 318 318 317 316 316 316 316 316 315 315 315 315 315 316 317 317 318 318 318 317 317 317 316 315 315 315 315 315 315 316 317 316 316 317 317
301 303 303 304 305 305 306 307 307 308 309 309 308 309 310 311 311 311 311 311 311 312 313 313 313 314 314 314 315 315 315 316 316 316 315 316 315 315 315 312 311 313 312 310 311 312 312 313 315 316 317 318 318 318 317 316 316 316 317 316 316 316 315 315 314 315 315 316 317 318 317 317 316 317 317 316 315 315 315 315 315 316 316 316 316 316 316 317
Wind_Speed
21 21 20 20 19 19 18 17 16 15 14 14 14 13 13 12 11 11 11 11 11 11 11 11 11 11 10 9 7 6 5 5 5 5 6 6 7 7 6 4 4 4 3 2 3 3 4 3 4 5 6 6 7 8 7 6 7 5 2 2 3 3 3 5 8 5 0 3 8 11 13 10 6 8 9 7 8 8 8 11 13 12 13 12 9 7 6 7
22 21 20 20 20 19 19 17 16 15 14 14 13 13 12 11 11 11 11 11 11 11 11 11 11 11 10 9 7 6 5 4 5 6 6 6 7 6 5 5 4 4 4 2 3 4 4 4 4 6 6 6 6 6 5 5 4 2 1 2 3 2 2 2 6 5 1 2 9 11 13 10 5 8 10 7 6 8 8 9 13 14 14 15 14 12 10 8
22 21 20 21 20 19 19 18 17 15 14 14 13 13 12 11 11 11 11 11 12 12 12 11 11 11 10 9 8 6 5 5 6 7 7 6 7 6 5 5 5 5 5 3 3 4 5 5 5 7 8 6 6 6 5 4 3 2 1 3 2 2 1 2 5 5 2 1 8 9 12 9 4 8 10 7 5 6 10 11 11 15 16 16 17 15 14 13
23 21 22 21 20 19 19 18 16 15 15 14 13 13 12 11 11 11 11 11 12 12 12 11 11 10 10 9 8 6 5 5 6 7 8 7 7 6 6 7 7 6 5 4 3 3 5 6 6 8 8 6 5 6 4 3 2 2 1 1 2 2 1 3 6 6 2 2 7 8 9 7 6 10 10 6 5 7 13 16 14 15 16 15 16 16 16 15
23 23 22 21 21 20 19 17 16 15 15 14 14 13 12 11 11 11 11 11 12 12 11 11 10 10 10 9 8 7 6 4 7 8 8 8 7 7 7 8 7 6 5 3 3 4 6 8 9 8 6 5 3 4 3 3 5 3 1 2 3 2 1 4 6 6 4 3 6 8 7 7 7 9 11 9 9 7 9 15 16 14 14 14 15 15 16 16
24 24 23 22 22 20 19 18 16 16 15 15 14 13 12 11 11 11 11 12 12 12 11 11 10 11 10 10 8 9 6 2 7 10 8 8 7 8 9 8 8 6 4 3 3 3 6 9 8 6 5 4 2 2 3 4 4 2 1 1 2 2 2 3 4 6 6 5 7 8 7 6 7 7 10 15 17 11 8 10 11 11 12 13 14 15 17 17
25 25 24 23 23 21 20 18 17 16 15 15 14 13 12 11 11 11 11 12 12 12 11 11 11 11 11 10 8 9 6 1 7 10 8 9 8 9 9 8 7 5 5 5 4 3 6 8 8 8 6 3 3 4 5 4 1 0 3 4 3 3 2 2 3 5 8 7 7 8 8 7 8 6 6 17 24 20 17 15 12 12 12 12 13 14 16 17
26 26 26 25 23 22 21 19 18 17 16 15 14 13 12 12 12 12 12 12 13 12 12 11 11 12 11 10 9 8 5 3 8 9 9 10 9 10 8 6 5 4 5 6 6 5 6 7 10 10 5 4 5 4 5 5 2 1 4 5 3 2 1 3 5 6 6 6 7 8 7 6 8 6 6 18 25 21 21 20 18 18 16 16 15 15 16 17
25 25 26 26 25 23 22 20 18 17 16 15 14 13 12 12 12 12 12 12 13 13 12 12 12 12 11 10 9 7 6 6 8 9 10 11 10 10 7 4 4 3 4 6 7 6 5 8 10 7 4 6 6 5 3 2 1 2 4 5 4 3 2 4 4 5 5 4 6 6 4 4 6 5 9 20 23 21 22 22 21 21 20 20 19 19 19 19
22 23 24 25 24 23 21 20 19 18 17 16 14 13 13 13 13 13 13 12 13 12 12 12 12 12 11 10 9 6 7 8 9 10 11 11 10 9 6 3 3 3 3 6 7 6 6 8 8 8 9 9 6 5 2 0 4 6 7 7 4 3 3 2 3 3 3 3 3 4 2 2 3 2 7 11 11 13 16 19 21 21 22 22 21 21 22 21
20 21 21 22 22 21 20 19 18 17 16 16 15 14 13 13 13 13 13 13 13 12 12 12 12 12 10 10 8 5 8 9 9 10 11 11 10 8 6 4 4 4 4 6 7 7 7 8 10 9 7 8 7 6 5 5 7 8 9 8 5 3 2 1 2 3 3 2 2 2 2 3 1 3 9 9 7 8 9 13 16 18 20 20 21 21 22 22
18 19 19 19 19 18 18 18 17 16 16 15 15 14 14 14 14 13 13 13 13 12 12 12 12 12 10 9 7 6 9 9 10 12 12 12 11 8 6 5 5 5 5 6 8 9 9 10 9 6 7 10 7 4 6 7 7 7 7 4 2 2 3 2 1 3 3 2 3 2 4 6 7 12 15 12 13 12 12 15 16 17 18 18 19 20 21 22
15 16 17 17 16 16 16 16 16 15 15 15 14 14 14 14 14 13 13 13 12 12 12 12 12 12 9 7 6 8 9 9 9 12 14 12 11 9 6 6 5 6 6 6 9 10 8 8 6 7 12 10 4 5 8 7 5 6 3 1 1 3 3 2 0 2 3 3 4 3 5 5 8 15 16 14 16 16 16 19 19 20 20 20 21 21 22 22
13 14 14 14 14 14 15 14 14 14 13 13 13 13 13 13 13 13 13 13 13 12 12 12 11 11 9 5 6 10 10 8 8 11 14 14 12 10 7 6 5 6 6 6 8 9 8 8 7 10 12 8 9 10 8 4 2 3 0 1 1 2 2 3 1 2 4 4 6 5 6 4 4 7 8 13 17 15 18 19 19 21 21 21 21 21 23 23
15 14 14 14 13 13 13 14 14 13 12 12 12 12 11 12 12 12 13 12 12 12 12 12 11 10 8 5 6 10 10 10 8 9 13 14 13 11 9 7 6 6 6 7 8 9 10 9 9 9 9 11 13 8 3 2 2 2 2 2 1 2 1 3 1 2 2 2 6 6 5 6 6 4 4 9 13 13 16 18 19 21 20 20 20 21 22 22
16 16 15 15 15 13 13 13 12 12 11 11 10 10 10 11 11 11 12 12 12 12 11 11 11 9 6 5 7 9 10 11 11 10 12 15 14 11 10 8 7 6 7 7 7 8 8 8 9 10 8 8 7 3 3 2 1 1 2 1 2 2 1 1 2 1 2 1 5 7 4 3 2 2 2 3 6 9 13 17 18 19 19 19 20 21 22 22
15 15 15 15 15 14 13 12 11 10 10 9 9 9 9 10 10 11 11 11 11 10 11 9 10 8 4 5 7 9 12 13 13 12 12 15 14 11 11 9 8 7 7 7 7 7 6 6 8 7 4 2 1 2 3 2 3 2 1 1 1 2 2 1 2 2 1 1 5 7 7 10 6 4 5 6 9 10 12 18 21 22 22 22 22 23 23 24
16 15 14 15 14 14 13 12 11 10 9 9 9 8 9 9 10 11 11 12 11 10 9 8 9 6 4 8 9 9 14 15 14 14 13 15 15 13 11 10 9 8 8 7 5 4 4 5 4 2 3 2 2 4 4 2 2 3 3 2 1 2 4 4 1 2 2 2 5 7 9 14 14 11 14 17 20 18 18 22 25 27 28 28 27 27 27 28
16 15 15 14 13 14 13 12 12 11 10 10 9 10 10 10 9 9 11 14 13 9 5 10 13 5 2 12 14 10 12 14 14 15 15 16 16 15 12 10 10 9 8 5 3 3 3 3 2 3 4 5 7 6 3 2 3 3 3 2 1 3 5 3 1 1 1 3 7 10 11 14 15 13 15 18 19 19 21 24 28 32 32 32 32 32 32 33
14 14 15 15 14 14 13 13 12 11 12 11 11 12 11 11 8 6 11 15 15 10 3 11 19 7 2 10 17 12 10 12 14 15 17 17 18 16 12 11 10 8 4 2 2 3 2 2 3 5 4 5 7 4 4 5 4 5 3 1 1 3 5 2 3 1 1 4 9 10 11 15 16 13 15 18 16 16 19 21 27 34 35 34 35 36 36 36
12 13 14 15 15 15 15 15 14 13 12 11 14 12 9 10 5 3 11 13 16 15 5 8 17 12 3 6 13 14 11 10 13 16 17 17 18 15 12 11 8 5 2 3 4 3 2 4 7 5 0 2 5 6 6 5 4 3 3 1 1 3 6 1 3 1 2 3 7 7 8 14 15 13 16 18 14 17 22 21 25 31 32 35 38 39 40 38
12 12 13 15 16 16 16 16 15 15 14 13 15 12 8 10 6 4 7 6 11 17 11 9 14 15 10 6 9 14 12 8 9 16 18 19 20 14 11 10 6 4 3 4 5 3 3 6 6 4 7 7 6 5 5 4 3 2 2 1 2 2 4 3 3 2 3 4 6 6 8 12 14 15 18 22 19 20 26 27 28 26 24 33 40 41 41 40
11 11 11 13 14 16 17 17 16 16 16 16 15 12 9 8 6 4 3 2 5 12 15 15 14 16 15 10 9 13 12 7 8 17 21 21 20 14 13 11 5 4 5 7 7 5 4 5 3 8 9 8 5 3 5 4 3 3 3 3 3 0 2 3 1 2 4 3 5 7 10 11 12 14 17 23 21 21 29 33 34 32 31 40 45 42 40 39
8 10 10 10 11 13 15 16 17 17 17 16 14 13 10 7 6 4 2 1 1 5 12 16 16 19 18 13 11 13 13 9 9 16 22 23 19 13 11 9 5 5 7 8 8 7 3 1 4 9 7 7 6 5 7 5 3 3 5 5 4 2 4 4 3 3 3 2 2 6 10 7 8 10 11 11 10 15 25 27 29 35 38 41 43 41 39 39
7 7 8 9 9 9 12 14 17 17 17 17 15 13 10 8 6 3 2 0 2 3 6 12 13 17 20 17 13 12 11 10 10 14 22 25 21 12 7 7 5 5 7 6 4 6 3 4 8 8 4 5 6 5 7 6 4 3 5 8 9 5 3 2 3 5 4 2 1 3 8 3 2 5 5 2 3 9 12 11 19 29 32 32 34 35 34 33
10 8 7 8 8 8 10 11 14 18 18 17 15 14 12 9 6 4 3 1 3 3 4 8 9 10 16 16 14 13 7 8 11 14 21 25 21 13 7 5 2 2 6 6 2 3 1 5 6 6 6 5 4 4 5 6 4 2 2 6 8 4 1 2 1 2 4 3 1 0 5 6 3 6 7 5 8 12 8 8 17 26 29 31 31 32 32 31
13 12 10 10 9 9 9 9 13 18 18 16 16 16 13 11 9 6 4 1 4 5 6 8 9 9 11 14 20 15 3 6 11 13 22 24 19 13 7 6 3 2 6 5 2 1 3 5 4 5 6 5 5 4 5 9 6 1 1 1 4 4 4 4 2 4 3 5 2 3 2 7 7 5 5 6 9 13 11 11 15 20 26 28 27 28 27 25
16 16 14 13 11 8 8 9 11 13 15 15 18 18 14 13 11 7 3 3 2 5 6 6 8 11 13 17 22 12 4 10 9 11 23 23 18 11 6 8 7 5 7 6 5 1 3 6 7 7 6 5 5 0 4 11 4 1 1 2 4 3 3 3 2 3 1 5 4 4 6 5 7 2 2 2 6 10 11 13 13 16 21 21 20 20 17 15
17 18 19 17 13 11 11 10 9 10 12 14 18 19 17 16 12 6 1 3 3 5 3 7 9 9 14 18 15 6 7 6 2 10 21 19 16 8 3 8 7 5 5 3 3 1 2 2 5 6 5 4 3 4 1 7 2 3 6 5 6 4 4 3 1 1 1 5 5 7 8 6 7 3 5 1 4 7 9 9 10 15 21 21 18 17 14 12
19 18 20 20 18 18 16 12 11 11 11 15 21 22 21 17 9 4 3 3 3 3 4 7 7 8 16 14 5 2 4 1 5 15 14 10 11 6 5 8 5 4 2 2 1 1 2 2 2 3 2 3 6 6 4 1 6 10 8 5 6 4 2 2 0 1 2 6 3 8 12 8 6 3 6 4 2 5 6 6 8 13 19 20 16 13 11 8
22 20 21 24 24 23 19 15 14 14 15 19 25 26 21 10 3 4 5 1 1 3 5 4 3 9 16 12 4 4 2 2 8 14 9 6 7 6 7 7 4 3 2 3 2 1 1 1 1 2 4 7 7 6 6 5 6 6 3 3 3 2 1 1 1 1 5 7 1 3 6 8 8 4 3 2 2 5 6 5 7 8 13 16 12 8 7 5
26 25 24 26 26 24 20 15 12 15 20 25 30 28 15 4 1 5 4 2 1 4 5 3 2 7 11 6 3 6 3 2 7 8 5 6 7 7 8 7 7 5 4 7 4 1 2 2 1 2 5 7 6 6 5 3 2 2 3 6 4 3 2 3 3 2 5 5 1 2 1 5 10 7 7 8 8 9 9 9 11 11 16 20 14 9 9 7
24 27 27 28 28 27 21 13 11 16 24 32 32 20 6 2 6 8 6 3 1 1 3 4 3 5 10 7 4 5 2 1 6 4 1 3 5 7 6 4 6 3 3 6 5 3 3 1 2 4 3 8 9 6 5 3 5 7 7 7 6 4 3 5 3 1 5 4 1 2 3 5 7 6 13 18 17 15 14 16 21 20 22 25 21 17 17 15
19 23 28 31 29 27 23 17 15 17 27 37 27 10 3 7 9 10 10 5 1 3 3 4 6 5 6 4 3 6 3 2 7 5 2 5 5 7 6 5 6 1 2 4 4 6 7 4 7 8 5 11 12 4 3 5 6 7 3 2 5 5 4 4 3 3 5 3 1 3 2 5 3 0 6 12 14 15 17 21 25 27 30 32 30 28 27 24
16 16 23 32 33 29 25 24 21 21 34 38 19 6 9 9 9 11 10 5 3 2 2 4 8 7 4 1 1 4 2 1 5 4 4 7 6 7 8 8 10 6 4 5 3 4 5 4 3 3 3 12 10 2 3 5 4 3 1 1 4 3 2 1 1 1 1 4 3 4 3 5 3 3 4 5 8 10 14 18 23 29 36 36 36 36 32 28
13 12 16 26 35 34 30 28 25 28 37 30 10 8 13 11 9 8 6 5 5 7 8 5 4 5 5 2 1 3 2 1 5 4 3 4 3 6 7 6 10 11 8 6 2 2 3 2 1 2 1 5 3 1 3 1 2 4 3 4 2 1 1 2 1 2 1 5 5 3 6 6 4 6 8 10 10 8 7 12 17 26 33 31 33 35 32 29
10 11 13 19 27 33 35 34 29 33 36 21 7 10 11 10 5 2 5 7 9 13 11 6 5 5 7 5 4 7 3 2 5 5 4 3 3 7 8 5 9 14 13 7 1 2 3 1 1 1 1 2 1 3 3 3 2 3 4 6 3 2 1 2 4 1 2 7 5 3 7 8 5 5 3 6 8 9 10 12 14 22 26 25 27 29 27 25
9 9 13 18 22 25 33 37 33 36 32 14 9 11 7 6 1 4 5 6 10 13 9 7 7 6 8 7 6 9 7 4 7 6 5 5 5 9 11 6 9 17 19 10 2 1 3 3 0 1 1 1 2 2 3 2 2 1 1 4 3 2 3 4 4 4 4 5 4 3 6 8 9 7 3 6 8 9 11 11 13 17 19 23 27 25 19 15
9 8 10 15 21 22 26 33 35 35 23 8 10 9 4 5 1 4 4 4 7 11 9 9 8 3 6 8 6 9 9 7 10 8 6 6 5 8 14 10 8 15 20 14 5 1 3 5 3 1 2 1 2 5 7 5 2 3 1 3 1 2 3 3 3 2 4 4 4 4 5 8 8 7 7 10 11 11 11 9 10 13 17 24 27 23 15 11
10 8 6 9 18 20 22 30 33 27 12 6 10 6 1 3 3 3 2 2 3 6 6 8 9 5 6 7 5 7 8 7 9 9 6 8 7 5 11 12 6 7 16 16 7 2 3 4 3 1 1 2 5 6 9 10 9 5 6 7 4 1 0 1 2 0 2 3 3 4 8 10 4 6 8 10 10 12 12 10 8 10 17 25 26 20 15 14
10 6 5 9 14 18 25 27 21 13 5 3 7 6 4 2 4 10 11 5 2 1 1 3 7 7 6 7 6 6 6 6 8 8 5 8 10 5 9 15 10 9 10 10 8 6 4 4 4 4 4 6 4 1 3 6 7 7 8 9 10 8 5 4 4 2 1 3 3 2 8 10 2 5 6 8 8 10 12 9 6 10 19 23 21 19 19 17
11 5 5 10 13 21 28 18 8 7 4 3 4 5 6 3 2 7 11 9 4 2 2 2 3 5 5 7 7 5 7 6 7 8 6 8 12 6 9 20 22 21 14 7 7 8 4 2 4 4 4 4 1 3 2 3 1 1 2 4 7 7 7 7 6 4 3 2 2 0 6 10 2 3 3 4 4 6 10 10 7 12 19 19 18 20 22 19
12 8 6 9 14 23 23 8 4 7 3 2 3 5 8 6 3 4 7 9 6 1 1 2 1 4 5 4 5 7 8 7 8 10 7 7 9 8 11 21 24 21 12 4 3 5 4 1 5 4 1 1 2 2 1 2 1 2 2 1 5 8 9 5 2 3 4 5 4 3 7 11 2 2 0 1 1 4 8 13 13 14 16 18 20 22 23 20
12 11 9 8 15 24 19 5 5 8 3 3 5 7 10 9 7 7 7 9 9 3 2 4 2 3 3 2 4 7 10 8 8 11 9 6 5 6 13 24 24 15 10 8 9 11 8 4 5 5 3 3 3 3 3 2 3 4 4 5 9 12 8 2 1 2 4 10 12 7 9 11 1 3 1 1 1 3 6 12 18 17 17 18 23 24 23 20
9 9 10 12 20 28 21 8 6 7 7 8 5 8 10 7 9 14 9 8 10 6 3 5 4 2 0 1 2 4 9 10 8 8 8 6 2 2 11 24 25 16 12 12 14 16 10 5 7 8 8 8 8 7 6 5 5 4 5 9 12 14 12 6 4 5 7 13 14 9 11 13 3 4 2 2 1 3 5 10 16 19 21 22 23 24 23 21
7 6 7 11 21 29 24 16 10 6 8 10 6 7 11 7 7 13 12 8 10 10 6 4 3 3 1 2 2 2 7 11 7 3 4 5 2 1 6 19 25 23 15 10 14 14 4 3 11 14 14 13 11 7 4 9 9 9 10 12 13 15 16 11 6 8 12 12 10 11 17 21 14 6 6 4 4 5 6 7 12 21 26 27 25 23 23 22
8 5 7 7 10 16 18 17 14 7 7 12 7 5 12 13 6 8 12 11 10 13 10 5 5 7 5 6 6 5 6 8 7 4 4 4 2 2 2 10 18 23 16 9 14 12 2 4 13 17 18 18 17 10 8 11 13 15 15 15 15 16 17 15 13 16 16 10 10 16 18 19 22 15 9 7 6 5 5 7 15 25 28 28 27 25 25 25
11 6 10 12 6 5 9 12 14 11 10 12 7 4 11 15 10 7 11 11 9 10 8 5 9 12 11 11 9 6 7 7 7 8 7 5 2 0 1 3 9 16 13 8 12 9 1 6 11 14 17 20 20 13 9 10 11 12 16 18 18 19 19 20 21 22 19 12 12 20 19 17 23 21 13 9 8 9 11 15 22 26 26 27 27 26 28 28
14 7 9 13 7 2 2 7 11 11 10 10 8 7 10 13 14 11 8 6 5 9 10 8 12 16 14 12 9 7 9 7 7 8 8 7 5 3 2 2 4 7 4 2 3 1 1 7 8 8 12 17 20 13 8 8 7 5 10 14 16 19 23 24 23 22 21 16 15 22 22 21 21 16 9 8 11 17 20 22 23 23 26 29 28 27 29 29
18 12 8 8 6 3 2 4 7 7 8 8 7 8 10 13 15 12 9 9 8 8 11 13 15 13 13 13 10 10 12 11 10 9 8 9 7 4 4 3 2 2 3 2 2 3 2 7 3 3 6 12 18 14 6 6 6 4 5 7 11 17 22 23 18 15 16 19 20 22 22 22 17 10 10 13 14 18 20 20 22 25 29 32 30 30 31 31
21 16 11 6 4 6 5 3 5 5 5 6 5 5 8 13 14 11 9 13 13 10 12 18 19 12 9 11 12 14 17 15 13 11 7 7 7 4 4 3 5 4 3 4 2 0 2 4 1 3 6 11 16 14 6 5 4 5 7 10 16 19 16 14 12 14 17 20 21 19 17 18 12 8 13 15 10 12 14 19 25 30 34 36 36 36 36 34
24 18 16 11 5 6 6 4 5 6 5 6 7 6 6 8 10 9 7 10 17 18 17 18 17 10 6 10 15 22 24 20 18 16 9 7 7 5 5 5 7 7 5 5 3 2 4 4 2 4 7 12 15 10 6 6 3 7 12 19 24 20 12 9 13 19 20 17 15 14 14 17 15 13 16 12 6 9 14 22 31 35 36 38 39 39 38 37
Wind_Direction
194 196 195 193 191 191 190 190 191 190 190 190 188 189 189 189 189 190 193 193 192 191 188 185 183 182 182 182 182 179 173 172 170 170 169 172 169 160 156 146 144 147 149 165 165 174 161 138 137 134 125 124 120 118 120 118 127 142 163 200 193 179 177 178 182 175 108 159 164 175 186 190 185 187 199 207 207 216 228 225 226 228 227 227 217 209 213 213
196 196 195 196 193 192 191 191 192 191 193 193 193 193 192 192 191 193 194 194 193 190 187 184 183 181 181 181 181 180 179 178 175 175 175 175 170 162 157 149 141 138 127 141 182 183 176 162 143 138 138 123 108 119 117 102 110 105 117 210 209 168 138 170 176 161 14 177 162 174 187 195 199 177 188 206 199 205 226 230 229 235 233 230 228 223 226 230
196 195 196 197 195 193 192 192 192 193 195 195 196 196 195 194 194 195 195 194 192 189 187 184 183 182 181 179 177 179 181 182 182 182 182 181 176 164 157 155 143 130 112 112 171 186 183 168 143 141 138 117 106 124 110 96 111 72 178 223 201 123 88 153 172 152 61 140 157 168 184 197 211 177 185 209 196 197 224 227 222 232 236 234 235 233 234 238
193 193 197 197 196 195 193 194 194 195 198 198 198 199 199 197 197 197 196 194 191 189 187 184 184 182 180 177 174 174 177 188 192 189 189 186 181 173 164 160 151 136 120 113 130 158 166 154 143 142 128 107 99 115 88 67 124 105 196 264 70 117 123 142 174 169 102 126 159 161 175 197 207 189 190 197 207 217 228 230 228 234 240 241 242 242 241 242
190 193 197 196 196 195 195 196 197 199 201 200 201 201 201 200 199 199 196 194 190 189 187 185 184 183 179 176 174 166 165 185 190 188 189 186 182 176 168 166 164 153 143 129 113 133 151 146 143 141 118 106 107 112 76 66 114 112 38 12 69 130 98 125 173 191 189 159 161 164 174 197 196 197 202 202 225 234 230 235 238 243 247 248 246 244 245 244
190 194 195 195 195 195 197 198 200 203 204 204 204 203 203 202 202 200 197 193 190 189 188 187 184 183 178 176 178 173 178 202 182 184 185 181 180 175 172 173 175 173 180 176 146 132 146 152 147 133 104 95 75 84 103 116 134 128 73 112 123 87 66 126 170 190 185 172 170 179 191 197 190 210 217 217 232 240 242 244 242 245 246 248 246 244 245 245
191 193 195 195 195 197 198 199 202 205 206 206 206 205 204 203 202 200 196 191 189 189 189 189 186 183 178 177 181 182 196 196 166 180 180 178 176 172 175 180 188 195 206 203 190 160 145 159 148 126 108 93 100 89 104 122 148 175 120 152 154 82 59 126 149 164 167 181 186 186 195 195 202 222 227 230 237 240 248 252 249 250 249 249 249 248 247 247
192 192 194 194 196 198 200 201 205 207 208 209 209 208 207 205 203 198 193 191 190 190 189 189 186 182 179 179 181 178 184 149 155 168 168 171 169 169 173 182 201 209 208 207 198 176 148 159 150 134 104 87 128 121 120 125 84 62 125 155 158 94 108 130 132 150 153 176 179 181 193 203 222 237 250 247 247 247 250 253 253 254 253 253 253 253 250 248
195 194 194 195 197 199 202 204 206 209 209 209 211 211 210 206 201 195 193 191 190 192 190 188 186 183 181 182 183 179 175 158 152 155 157 162 162 168 171 176 193 188 194 194 186 178 157 161 159 155 133 115 127 124 141 170 78 80 121 141 144 100 114 132 133 151 155 163 170 186 197 219 243 262 263 255 256 257 252 251 253 253 253 254 255 256 255 253
200 200 199 199 200 202 205 207 210 211 210 211 211 210 210 204 199 195 193 192 191 192 189 186 185 183 182 182 186 184 176 168 158 158 157 159 162 169 172 169 158 142 170 175 175 171 158 162 155 145 133 123 120 99 83 171 107 111 117 113 100 83 99 131 150 164 190 178 186 220 222 262 269 266 257 252 254 255 251 249 251 253 253 254 254 255 256 255
204 205 205 205 206 208 209 211 213 213 213 213 211 208 205 201 197 194 193 192 190 190 188 185 182 183 183 183 191 184 175 175 167 167 164 163 167 168 171 161 136 126 143 150 150 151 148 149 145 139 128 128 124 90 77 98 105 112 127 119 81 72 117 152 181 191 220 198 181 228 261 263 212 224 244 241 244 250 253 253 253 254 255 256 255 253 254 254
205 205 207 209 210 211 212 213 213 213 214 213 209 206 202 200 197 192 192 190 187 187 185 183 181 182 181 182 189 174 170 174 171 174 172 170 171 170 167 154 137 120 117 131 132 131 133 139 148 144 131 139 134 104 104 104 101 109 127 141 106 142 186 168 206 222 226 215 148 140 260 237 202 228 240 241 250 256 260 261 260 259 259 259 258 256 256 255
201 203 207 209 209 210 210 210 210 210 211 210 207 203 199 198 194 190 188 185 185 184 182 183 182 182 179 176 180 169 162 161 167 177 177 174 175 176 167 156 152 126 117 129 126 122 127 136 147 135 131 134 123 123 118 93 99 116 97 320 160 201 210 141 287 238 216 213 149 152 269 236 202 230 240 246 254 258 261 264 264 263 263 262 261 261 261 259
192 196 199 201 203 204 203 203 203 203 203 205 204 200 198 195 190 187 184 182 183 180 180 182 180 182 179 170 177 181 177 167 168 180 183 182 180 180 171 163 160 132 124 126 122 120 115 120 134 128 123 119 118 123 112 72 77 106 81 279 176 240 175 114 107 210 210 204 159 178 260 257 223 231 239 252 256 259 261 262 266 266 265 263 262 261 260 260
180 182 184 186 187 191 195 194 194 194 196 199 198 197 195 192 188 184 181 180 179 178 179 179 179 179 176 173 182 188 193 193 191 187 187 188 188 186 175 166 162 143 132 129 126 121 114 120 127 112 105 118 128 130 112 86 72 50 234 177 128 247 170 114 138 201 236 183 167 194 251 261 262 264 262 261 254 255 262 265 269 270 268 265 262 261 260 259
176 176 178 181 182 186 189 188 190 191 193 195 194 193 193 192 188 183 181 177 175 175 174 175 178 176 175 185 189 193 196 199 198 192 190 190 191 191 179 167 164 150 136 134 131 125 125 126 116 105 107 126 137 149 127 145 158 75 269 225 146 224 270 98 121 170 305 65 193 222 264 267 254 267 252 250 247 255 266 269 271 272 273 270 265 263 261 259
179 179 180 182 183 186 187 187 189 188 191 190 186 186 186 187 185 182 179 174 172 171 171 173 174 180 202 196 193 200 199 199 198 193 192 191 190 190 184 171 161 156 145 140 136 132 132 123 116 111 107 112 141 166 157 213 217 158 253 258 204 232 261 253 127 118 265 265 224 226 248 256 254 256 252 266 278 277 270 270 274 275 274 273 270 266 263 260
181 184 186 186 185 186 186 186 186 185 184 179 174 171 170 173 176 177 175 172 166 159 167 172 166 180 218 199 198 203 200 200 197 193 189 189 187 186 188 179 165 159 144 136 136 128 116 109 121 129 115 126 165 190 202 200 181 171 184 203 232 219 231 257 249 134 175 240 237 226 241 257 259 258 262 268 273 273 270 272 275 274 274 273 271 268 264 262
184 187 189 190 189 189 189 185 184 183 178 174 169 161 154 149 151 163 171 169 163 154 171 184 180 184 190 190 196 197 196 196 193 192 186 184 185 183 186 181 170 160 147 153 142 109 113 113 128 179 181 189 192 202 202 103 104 129 152 196 199 234 247 241 200 108 206 245 247 240 249 263 265 263 266 267 267 267 267 271 272 272 272 272 271 268 264 262
189 191 192 193 193 192 193 189 187 184 177 174 167 158 148 142 134 154 177 176 178 180 197 191 192 198 107 182 195 191 183 186 188 189 186 186 183 179 176 166 161 159 152 174 132 102 144 176 190 212 218 198 188 172 103 91 98 108 121 187 175 262 271 215 117 90 205 254 256 245 253 267 271 272 270 271 270 266 263 262 264 267 268 269 269 268 265 264
190 196 196 196 195 193 194 192 189 185 180 177 171 165 162 165 155 158 179 187 197 200 206 190 195 202 177 170 191 190 176 174 185 187 187 186 179 176 170 160 160 169 131 96 108 109 151 210 224 221 97 109 143 124 113 112 103 114 155 201 213 244 266 267 102 136 170 228 262 253 256 264 267 271 271 270 265 260 259 254 257 262 266 268 269 268 267 267
182 193 199 203 200 196 194 191 191 187 183 181 179 180 184 187 186 158 168 188 208 212 220 206 199 207 209 185 181 188 178 165 181 186 185 181 180 181 169 167 183 176 132 116 127 135 188 229 230 152 94 88 101 127 142 133 121 138 147 185 248 241 275 280 103 110 177 215 268 276 271 265 263 266 265 260 253 255 258 256 259 263 266 267 268 269 269 270
175 180 193 204 206 203 196 191 192 189 186 187 187 189 189 189 191 185 171 157 207 218 223 219 213 213 213 207 195 189 182 175 179 185 185 180 181 186 173 173 182 143 152 182 186 182 193 236 198 133 130 118 104 141 149 134 162 186 169 193 238 141 287 264 111 113 174 214 297 295 283 268 255 253 254 255 253 257 261 261 264 265 264 266 267 268 268 269
178 176 185 195 205 210 202 194 193 190 191 192 192 192 192 189 189 195 170 118 273 224 221 221 220 221 217 214 210 197 192 196 189 187 188 182 176 181 179 167 150 148 180 195 201 208 199 53 122 141 155 143 126 156 170 177 198 208 207 215 232 216 225 251 341 331 207 191 312 292 284 265 238 243 248 255 255 259 262 263 265 264 264 266 267 268 268 267
200 194 194 191 200 208 205 201 194 193 197 197 195 193 193 187 178 177 141 72 282 217 222 221 218 226 221 216 211 194 195 209 206 196 191 186 178 168 160 157 167 186 184 168 193 234 224 110 132 143 153 150 144 170 188 195 203 216 217 221 233 244 241 240 344 331 275 227 138 307 298 279 191 229 242 255 250 255 254 252 263 267 268 268 268 271 272 272
214 218 215 208 208 199 201 204 195 196 200 198 197 193 190 179 159 161 140 51 271 187 179 202 203 215 212 208 191 176 198 222 209 200 189 189 185 171 153 150 174 197 157 144 185 254 199 128 136 145 150 153 164 190 191 192 210 230 209 221 231 242 265 235 245 279 282 292 213 286 301 289 248 210 226 251 259 263 258 250 262 266 269 269 269 274 276 277
217 221 224 228 221 200 193 201 202 200 195 195 196 189 183 170 154 156 148 314 259 175 147 174 184 191 195 189 177 175 203 176 177 188 185 186 187 183 182 160 145 158 141 144 215 218 148 156 146 137 145 155 180 199 189 187 199 203 84 178 189 186 207 211 207 232 281 324 276 169 189 278 276 216 219 246 255 267 270 266 266 265 268 270 273 277 279 279
219 220 222 231 234 220 199 205 211 202 195 196 189 179 170 160 153 149 170 262 228 137 141 163 167 179 178 172 175 174 125 141 153 180 181 183 184 184 202 186 173 166 159 178 215 203 141 182 181 162 161 181 186 186 172 179 191 11 93 109 131 147 173 160 191 234 308 323 279 168 157 256 276 196 132 256 246 260 264 262 267 268 272 276 279 282 284 283
220 222 220 224 234 235 217 207 199 191 195 190 175 167 158 151 145 124 148 244 162 110 128 154 154 165 160 162 175 162 126 140 118 165 171 178 182 180 195 190 171 135 154 224 238 54 35 204 191 177 185 192 142 32 182 187 168 135 140 99 92 88 80 104 241 197 103 285 255 166 170 246 282 194 146 167 233 243 253 258 265 271 276 281 284 287 288 282
217 223 221 219 219 222 220 207 189 183 182 171 164 160 151 147 143 136 183 229 181 103 104 146 157 159 154 155 174 148 131 95 106 142 155 169 177 166 126 153 144 116 135 318 328 84 35 62 163 203 205 136 109 66 16 49 122 141 144 103 93 88 72 87 4 71 250 265 232 167 184 223 275 212 166 177 201 221 233 245 258 268 276 281 284 284 285 278
211 213 217 221 220 220 219 208 192 180 169 162 159 154 149 139 124 181 193 221 83 134 127 142 152 153 159 160 168 169 130 68 141 148 150 158 165 146 129 139 128 122 193 251 213 103 35 127 156 186 144 117 109 83 45 58 130 149 146 133 135 145 142 169 175 145 240 250 238 161 195 224 243 224 182 205 228 237 231 229 249 264 272 278 280 270 264 261
212 210 215 223 227 228 223 214 199 179 167 160 158 156 150 129 246 217 201 97 132 184 154 149 171 164 167 160 144 158 134 118 171 171 157 161 174 172 178 185 165 165 228 216 189 104 196 203 103 129 155 159 146 105 79 69 185 208 163 162 196 215 202 235 211 181 241 250 32 97 186 248 249 249 263 261 247 238 229 229 244 257 266 271 271 258 248 243
216 212 216 221 225 228 224 216 201 185 169 162 161 157 142 179 209 215 206 169 169 185 112 111 131 156 163 161 155 154 128 136 174 183 155 160 190 195 212 223 178 190 237 186 166 165 200 256 144 156 178 197 194 160 154 185 192 195 179 173 196 201 213 235 207 225 266 267 57 131 182 249 263 256 243 243 241 234 226 233 245 254 262 267 269 267 262 260
219 215 218 222 226 226 223 215 206 193 173 165 162 154 166 208 216 212 207 201 65 45 64 106 119 133 160 170 173 164 158 179 168 165 161 167 193 207 218 231 210 219 58 154 179 187 209 249 181 171 162 184 199 209 153 139 167 194 183 178 205 197 207 231 219 247 276 300 171 158 187 230 236 13 231 242 253 247 240 241 248 255 258 262 267 268 269 271
226 223 218 219 221 223 225 216 210 201 180 169 162 169 190 208 226 219 206 175 107 95 68 98 121 135 176 304 325 197 209 208 168 155 170 179 197 203 199 206 202 187 155 188 196 169 222 268 171 141 138 167 183 211 101 109 154 190 66 242 235 215 188 260 302 259 333 319 253 190 232 239 230 296 262 254 264 251 246 246 248 253 254 256 261 264 268 272
228 226 217 214 213 217 222 216 213 204 184 170 160 186 198 213 217 212 189 137 141 141 119 120 131 138 179 196 248 227 275 125 159 170 197 200 238 216 206 209 194 188 188 187 157 136 205 292 51 31 82 168 188 126 130 160 178 158 165 200 227 338 150 200 252 84 108 268 257 201 249 271 287 269 230 220 238 233 237 248 244 247 250 253 257 259 262 267
224 220 220 219 215 217 216 213 214 201 183 172 185 194 200 219 206 147 161 141 137 143 140 161 181 170 179 180 188 195 199 141 164 190 191 176 243 212 204 224 193 192 203 203 206 208 198 221 47 68 179 196 350 79 85 13 70 133 186 183 141 27 330 220 236 213 195 250 265 221 253 270 270 264 202 187 230 235 231 238 240 245 249 252 255 257 260 264
222 223 226 226 227 226 216 212 207 190 176 171 210 210 209 215 157 84 164 153 133 150 172 194 185 183 184 181 181 178 178 169 171 194 185 172 230 198 179 200 200 198 206 207 228 223 196 222 184 37 262 124 76 150 142 60 39 43 181 161 146 220 205 186 214 232 220 244 268 243 262 263 233 230 226 187 203 224 229 228 234 240 240 242 248 253 259 259
219 229 239 227 222 225 223 214 196 177 168 177 208 215 225 203 153 64 135 152 155 168 192 198 183 186 190 179 158 161 183 186 164 180 194 181 214 189 175 187 197 197 195 190 199 143 169 228 219 81 304 52 133 211 197 167 110 18 110 162 228 277 220 178 177 229 230 240 276 283 280 263 221 195 212 210 199 208 220 219 224 232 230 232 239 246 244 225
213 221 253 227 212 215 219 209 189 172 166 197 203 209 211 188 235 261 195 145 177 189 202 198 184 181 182 174 155 161 193 203 171 183 202 186 199 204 185 183 164 174 183 182 197 164 144 227 221 110 295 215 189 207 200 180 167 177 191 185 185 176 299 250 192 208 255 239 265 286 276 268 220 149 189 202 194 202 214 218 216 226 233 232 231 229 218 200
208 223 243 211 203 203 200 197 187 172 165 197 212 219 206 184 229 238 239 253 302 286 245 204 193 189 169 169 185 177 180 194 187 196 208 194 207 223 190 184 158 133 157 178 204 199 174 204 192 156 192 207 199 212 231 201 178 184 193 191 189 174 160 201 199 175 253 248 232 242 272 272 223 136 187 191 184 199 210 215 208 217 231 235 225 203 192 193
204 227 223 196 195 190 188 190 179 164 175 199 210 207 202 216 224 221 232 243 269 323 347 321 221 200 178 173 183 167 165 184 191 201 222 214 214 214 187 184 170 153 152 171 199 188 151 153 196 191 197 205 123 42 339 305 335 260 238 203 194 178 177 198 205 186 178 232 268 293 274 273 243 126 183 181 185 198 200 207 214 218 223 225 214 193 186 192
208 218 203 191 197 186 181 193 181 166 189 234 206 201 200 215 218 187 208 218 220 219 210 256 246 210 205 178 163 163 176 190 191 198 219 229 222 214 188 182 171 159 157 161 166 151 118 146 212 211 182 106 69 81 84 28 46 241 265 179 192 201 203 204 217 189 167 193 210 190 248 260 276 68 342 49 257 215 197 205 215 226 226 209 195 192 193 195
217 222 214 206 205 189 182 201 190 182 196 168 191 218 209 217 226 203 199 202 199 189 191 217 235 231 223 146 159 182 186 195 204 205 212 228 221 201 187 183 176 169 178 185 172 163 164 193 204 203 216 202 190 203 199 164 182 224 219 190 204 207 195 121 30 209 207 214 209 204 244 254 285 54 277 126 201 242 215 211 216 226 232 213 195 195 201 202
217 224 221 217 207 197 195 208 187 187 191 168 176 208 201 217 227 215 215 205 201 205 206 216 220 219 206 129 160 191 196 211 223 207 211 231 215 164 191 187 183 187 200 196 176 165 170 197 185 192 219 214 208 215 202 166 163 209 214 196 203 202 186 179 198 204 227 228 214 209 243 254 248 111 191 206 197 238 223 219 225 223 220 214 206 202 206 211
199 211 209 210 208 205 209 216 206 196 186 178 183 192 193 208 212 207 212 212 210 211 215 231 209 183 170 163 170 195 211 231 242 201 210 229 196 75 205 194 193 201 208 196 170 158 155 223 192 200 217 220 229 231 142 128 155 196 207 188 192 201 195 195 207 213 225 234 228 219 234 255 260 204 178 211 213 227 224 211 227 226 217 213 213 210 212 219
198 205 191 189 209 216 222 219 212 211 184 181 184 175 192 206 199 186 200 208 210 207 213 234 206 196 202 197 207 216 207 226 240 226 231 227 207 359 218 198 205 209 208 188 170 160 112 229 204 213 221 226 241 234 156 146 174 198 202 188 189 199 194 197 213 222 222 225 241 234 227 247 261 246 215 215 208 221 243 218 221 226 222 220 221 216 218 224
208 222 203 194 196 224 228 216 208 210 195 184 190 178 187 201 202 188 196 204 205 198 202 229 216 212 212 205 211 221 205 212 228 229 235 225 197 20 182 204 223 217 209 188 177 168 181 223 211 219 225 232 244 233 178 175 191 195 200 195 192 193 192 202 217 224 221 214 238 246 232 232 253 254 238 222 203 200 220 225 225 226 228 231 231 226 224 227
212 233 212 202 209 220 207 197 196 206 201 185 191 197 190 198 205 202 189 180 198 202 195 210 221 216 216 213 211 214 213 212 215 219 227 222 199 167 189 222 231 219 194 163 206 182 207 222 217 215 225 238 246 238 184 190 217 210 208 205 196 192 195 205 216 222 223 224 238 249 247 243 249 255 255 247 224 216 225 231 231 230 232 234 238 237 233 231
210 218 207 197 214 203 132 149 171 193 205 194 200 205 199 202 204 201 188 176 184 193 193 213 228 216 210 216 215 221 224 217 220 223 217 221 216 187 202 216 148 104 89 105 302 344 233 226 212 175 222 244 246 241 194 180 217 227 222 221 213 209 207 210 217 218 221 232 241 246 254 257 253 254 275 269 234 216 225 232 232 234 234 235 239 242 241 239
209 211 209 201 212 201 185 156 154 175 198 196 206 208 204 211 206 192 194 197 197 188 184 207 225 217 203 211 213 227 228 219 228 233 207 211 225 199 202 196 120 117 148 166 176 62 221 241 83 147 219 241 241 235 193 152 203 236 239 229 221 219 214 210 217 220 218 226 238 245 253 259 255 250 262 257 216 200 220 226 231 238 238 237 239 241 244 245
210 207 208 210 222 209 194 175 172 198 210 191 194 199 197 213 203 185 196 210 212 214 205 205 216 213 198 208 215 227 230 226 234 242 236 241 248 232 218 193 150 152 167 162 163 163 182 214 220 184 212 241 244 224 155 132 196 239 236 230 227 224 215 204 218 226 224 222 229 235 237 246 253 254 253 247 191 196 220 224 231 237 238 239 241 241 244 247